GW2166 Weather Reports


Display with metric or nautical units.
time (UTC)temp
F
wind
direction
speed
MPH
gust
MPH
rain 1hr
in
rain 24hr
in
rain mn
in
humidity
%
barometer
mb
20260905195002 100 195 4.0 12.0 0.00 0.00 0.00 43 1012.9
20260905194002 101 172 4.0 13.0 0.00 0.00 0.00 41 1013.0
20260905193503 101 161 5.0 13.0 0.00 0.00 0.00 42 1013.1
20260905192503 99 189 7.0 11.0 0.00 0.00 0.00 43 1013.0
20260905192002 99 192 3.0 7.0 0.00 0.00 0.00 45 1013.1
20260905191002 98 278 2.0 10.0 0.00 0.00 0.00 45 1013.2
20260905190502 98 190 3.0 9.0 0.00 0.00 0.00 44 1013.2
20260905190003 99 251 4.0 10.0 0.00 0.00 0.00 45 1013.3
20260905185502 99 310 3.0 11.0 0.00 0.00 0.00 43 1013.4
20260905184502 99 134 2.0 12.0 0.00 0.00 0.00 44 1013.4
20260905184002 98 235 3.0 12.0 0.00 0.00 0.00 43 1013.5
20260905183502 99 125 5.0 12.0 0.00 0.00 0.00 42 1013.7
20260905183002 99 164 5.0 12.0 0.00 0.00 0.00 44 1013.7
20260905182002 99 219 3.0 9.0 0.00 0.00 0.00 46 1013.8
20260905181502 99 165 5.0 9.0 0.00 0.00 0.00 45 1014.0
20260905181002 98 209 3.0 7.0 0.00 0.00 0.00 47 1014.0
20260905180503 98 234 5.0 9.0 0.00 0.00 0.00 45 1014.0
20260905180003 98 189 4.0 14.0 0.00 0.00 0.00 46 1014.1
20260905175502 98 209 3.0 14.0 0.00 0.00 0.00 47 1014.2
20260905175003 98 157 4.0 11.0 0.00 0.00 0.00 48 1014.2
20260905174502 98 190 7.0 11.0 0.00 0.00 0.00 46 1014.3
20260905174002 97 203 5.0 9.0 0.00 0.00 0.00 48 1014.5
20260905173502 97 206 4.0 9.0 0.00 0.00 0.00 47 1014.5
20260905173004 97 252 3.0 7.0 0.00 0.00 0.00 48 1014.6
20260905172503 97 78 4.0 7.0 0.00 0.00 0.00 49 1014.7
20260905172002 97 241 2.0 5.0 0.00 0.00 0.00 50 1014.7
20260905171002 96 111 4.0 9.0 0.00 0.00 0.00 52 1014.9
20260905170502 95 182 3.0 6.0 0.00 0.00 0.00 53 1014.8
20260905170001 95 202 2.0 5.0 0.00 0.00 0.00 52 1014.9
20260905164500 94 180 3.0 7.0 0.00 0.00 0.00 55 1015.0
20260905164001 94 252 2.0 6.0 0.00 0.00 0.00 56 1015.0
20260905163000 94 213 2.0 6.0 0.00 0.00 0.00 56 1015.1
20260905162501 94 210 2.0 6.0 0.00 0.00 0.00 56 1015.0
20260905162001 93 254 2.0 6.0 0.00 0.00 0.00 58 1014.9
20260905161501 93 124 2.0 5.0 0.00 0.00 0.00 59 1014.9
20260905160459 92 111 2.0 7.0 0.00 0.00 0.00 58 1014.9
20260905155959 92 186 2.0 5.0 0.00 0.00 0.00 59 1015.0
20260905155501 91 221 2.0 6.0 0.00 0.00 0.00 61 1014.9
20260905154959 91 213 3.0 7.0 0.00 0.00 0.00 62 1014.8
20260905154501 90 207 4.0 7.0 0.00 0.00 0.00 61 1014.7
20260905153000 89 200 2.0 4.0 0.00 0.00 0.00 62 1014.7
20260905152459 88 233 1.0 4.0 0.00 0.00 0.00 65 1014.7
20260905151959 87 183 2.0 6.0 0.00 0.00 0.00 65 1014.8
20260905151459 87 193 2.0 6.0 0.00 0.00 0.00 68 1014.8
20260905151000 87 159 2.0 5.0 0.00 0.00 0.00 66 1014.7
20260905150458 86 134 2.0 5.0 0.00 0.00 0.00 69 1014.6
20260905145458 85 206 2.0 5.0 0.00 0.00 0.00 71 1014.6
20260905144959 84 183 2.0 5.0 0.00 0.00 0.00 71 1014.7
20260905144458 83 172 3.0 5.0 0.00 0.00 0.00 73 1014.6
20260905143958 83 190 3.0 5.0 0.00 0.00 0.00 72 1014.6
20260905143458 84 192 1.0 5.0 0.00 0.00 0.00 74 1014.5
20260905142456 82 173 2.0 5.0 0.00 0.00 0.00 74 1014.3
20260905141958 81 138 2.0 5.0 0.00 0.00 0.00 76 1014.2
20260905141458 80 169 1.0 5.0 0.00 0.00 0.00 79 1014.2
20260905140957 79 168 2.0 5.0 0.00 0.00 0.00 80 1014.2
20260905140457 78 168 1.0 4.0 0.00 0.00 0.00 83 1014.2
20260905135457 75 134 0.0 1.0 0.00 0.00 0.00 90 1014.1
20260905134456 75 134 0.0 2.0 0.00 0.00 0.00 87 1014.1
20260905133956 74 134 1.0 2.0 0.00 0.00 0.00 88 1014.1
20260905132956 73 134 0.0 2.0 0.00 0.00 0.00 91 1014.0
20260905131956 72 134 1.0 2.0 0.00 0.00 0.00 92 1013.9
20260905131455 71 44 0.0 1.0 0.00 0.00 0.00 94 1013.8
20260905130956 71 44 0.0 0.0 0.00 0.00 0.00 94 1013.7
20260905130455 71 44 0.0 0.0 0.00 0.00 0.00 94 1013.7
20260905125955 71 44 0.0 0.0 0.00 0.00 0.00 95 1013.7
20260905125455 70 44 0.0 0.0 0.00 0.00 0.00 96 1013.7
20260905124955 69 44 0.0 0.0 0.00 0.00 0.00 97 1013.6
20260905124455 68 44 0.0 0.0 0.00 0.00 0.00 97 1013.6
20260905123955 68 44 0.0 0.0 0.00 0.00 0.00 97 1013.5
20260905123455 67 44 0.0 0.0 0.00 0.00 0.00 97 1013.5
20260905122955 67 44 0.0 0.0 0.00 0.00 0.00 96 1013.5
20260905121954 67 44 0.0 0.0 0.00 0.00 0.00 96 1013.3
20260905121455 67 44 0.0 0.0 0.00 0.00 0.00 96 1013.3
20260905120955 66 44 0.0 0.0 0.00 0.00 0.00 96 1013.2
20260905120454 66 44 0.0 0.0 0.00 0.00 0.00 96 1013.3
20260905115454 66 44 0.0 0.0 0.00 0.00 0.00 96 1013.2
20260905114954 66 44 0.0 0.0 0.00 0.00 0.00 96 1013.0
20260905114454 66 49 0.0 1.0 0.00 0.00 0.00 95 1013.0
20260905113953 66 65 0.0 1.0 0.00 0.00 0.00 96 1013.0
20260905113453 67 80 0.0 0.0 0.00 0.00 0.00 95 1012.9
20260905112953 67 79 0.0 2.0 0.00 0.00 0.00 96 1013.0
20260905112453 67 79 0.0 2.0 0.00 0.00 0.00 96 1013.0
20260905111953 67 80 1.0 2.0 0.00 0.00 0.00 96 1012.9
20260905111453 67 79 0.0 1.0 0.00 0.00 0.00 96 1012.9
20260905110953 67 79 0.0 2.0 0.00 0.00 0.00 96 1012.9
20260905110453 67 80 0.0 2.0 0.00 0.00 0.00 97 1012.8
20260905105953 67 149 1.0 2.0 0.00 0.00 0.00 97 1012.9
20260905105452 67 149 0.0 1.0 0.00 0.00 0.00 97 1012.9
20260905104952 67 149 0.0 1.0 0.00 0.00 0.00 96 1012.9
20260905104452 67 149 0.0 1.0 0.00 0.00 0.00 97 1012.8
20260905103952 67 149 0.0 1.0 0.00 0.00 0.00 97 1012.9
20260905103453 67 149 0.0 1.0 0.00 0.00 0.00 96 1012.9
20260905102952 66 149 0.0 1.0 0.00 0.00 0.00 96 1013.1
20260905102452 67 149 0.0 1.0 0.00 0.00 0.00 96 1013.0
20260905101952 67 147 0.0 2.0 0.00 0.00 0.00 96 1013.1
20260905100452 67 6 0.0 0.0 0.00 0.00 0.00 96 1012.9
20260905095452 67 6 0.0 0.0 0.00 0.00 0.00 96 1013.0
20260905094951 67 6 0.0 0.0 0.00 0.00 0.00 96 1012.9
20260905094451 67 6 0.0 0.0 0.00 0.00 0.00 96 1012.8
20260905093951 67 6 0.0 0.0 0.00 0.00 0.00 96 1012.9
20260905093450 67 6 0.0 0.0 0.00 0.00 0.00 96 1012.9
20260905092950 67 6 0.0 0.0 0.00 0.00 0.00 96 1012.9
20260905092451 67 10 0.0 0.0 0.00 0.00 0.00 96 1012.9
20260905091451 67 10 0.0 0.0 0.00 0.00 0.00 96 1012.9
20260905090950 67 10 0.0 0.0 0.00 0.00 0.00 96 1012.9
20260905090450 67 10 0.0 0.0 0.00 0.00 0.00 96 1012.9
20260905085950 68 10 0.0 0.0 0.00 0.00 0.00 96 1012.8
20260905085450 68 10 0.0 0.0 0.00 0.00 0.00 96 1012.8
20260905084950 68 10 0.0 0.0 0.00 0.00 0.00 96 1012.9
20260905084450 68 10 0.0 0.0 0.00 0.00 0.00 96 1012.8
20260905083949 68 10 0.0 0.0 0.00 0.00 0.00 96 1012.9
20260905083449 67 10 0.0 0.0 0.00 0.00 0.00 96 1012.9
20260905082950 68 10 0.0 0.0 0.00 0.00 0.00 96 1012.9
20260905082450 68 10 0.0 0.0 0.00 0.00 0.00 96 1012.7
20260905081949 68 10 0.0 0.0 0.00 0.00 0.00 96 1012.7
20260905081449 68 10 0.0 0.0 0.00 0.00 0.00 96 1012.7
20260905080948 68 10 0.0 0.0 0.00 0.00 0.00 96 1012.8
20260905080448 68 10 0.0 0.0 0.00 0.00 0.00 96 1012.8
20260905075948 68 10 0.0 0.0 0.00 0.00 0.00 96 1012.7
20260905074948 68 10 0.0 0.0 0.00 0.00 0.00 96 1012.7
20260905074448 68 10 0.0 0.0 0.00 0.00 0.00 96 1012.7
20260905073948 68 10 0.0 0.0 0.00 0.00 0.00 95 1012.8
20260905073448 68 10 0.0 1.0 0.00 0.00 0.00 95 1012.8
20260905072948 68 10 0.0 1.0 0.00 0.00 0.00 95 1012.9
20260905072448 68 10 0.0 1.0 0.00 0.00 0.00 96 1012.9
20260905071948 68 10 0.0 0.0 0.00 0.00 0.00 95 1012.8
20260905071447 69 10 0.0 0.0 0.00 0.00 0.00 95 1012.9
20260905070947 69 10 0.0 0.0 0.00 0.00 0.00 95 1012.9
20260905070448 69 10 0.0 0.0 0.00 0.00 0.00 95 1012.8
20260905065948 69 10 0.0 0.0 0.00 0.00 0.00 95 1012.8
20260905065447 68 10 0.0 0.0 0.00 0.00 0.00 95 1012.8
20260905064947 69 10 0.0 0.0 0.00 0.00 0.00 95 1012.9
20260905064447 69 10 0.0 0.0 0.00 0.00 0.00 95 1012.9
20260905063946 69 10 0.0 0.0 0.00 0.00 0.00 95 1012.9
20260905062947 69 10 0.0 0.0 0.00 0.00 0.00 95 1012.9
20260905061947 69 10 0.0 0.0 0.00 0.00 0.00 95 1013.0
20260905060946 69 10 0.0 0.0 0.00 0.00 0.00 95 1013.0
20260905060445 69 10 0.0 0.0 0.00 0.00 0.00 94 1013.0
20260905055945 69 10 0.0 0.0 0.00 0.00 0.00 94 1013.1
20260905055446 69 10 0.0 0.0 0.00 0.00 0.00 94 1013.0
20260905054946 69 10 0.0 0.0 0.00 0.00 0.00 94 1013.0
20260905054446 69 10 0.0 0.0 0.00 0.00 0.00 94 1013.1
20260905053946 69 10 0.0 0.0 0.00 0.00 0.00 94 1012.9
20260905051945 70 10 0.0 2.0 0.00 0.00 0.00 92 1012.8
20260905051444 71 10 1.0 2.0 0.00 0.00 0.00 92 1012.8
20260905050944 71 10 2.0 2.0 0.00 0.00 0.00 92 1012.8
20260905050445 71 10 2.0 2.0 0.00 0.00 0.00 93 1012.8
20260905045944 70 10 2.0 2.0 0.00 0.00 0.00 94 1012.9
20260905045444 70 10 0.0 0.0 0.00 0.00 0.00 94 1012.8
20260905044945 70 10 0.0 0.0 0.00 0.00 0.00 94 1012.8
20260905044444 70 10 0.0 0.0 0.00 0.00 0.00 94 1012.8
20260905043944 70 10 0.0 0.0 0.00 0.00 0.00 93 1012.9
20260905043444 71 10 0.0 0.0 0.00 0.00 0.00 93 1012.9
20260905042944 71 10 0.0 0.0 0.00 0.00 0.00 93 1012.8
20260905042444 71 10 0.0 0.0 0.00 0.00 0.00 93 1012.9
20260905041944 71 10 0.0 0.0 0.00 0.00 0.00 93 1012.9
20260905041443 71 10 0.0 0.0 0.00 0.00 0.00 93 1013.0
20260905040943 71 10 0.0 0.0 0.00 0.00 0.00 93 1012.9
20260905040444 71 10 0.0 0.0 0.00 0.00 0.00 93 1012.9
20260905035943 71 10 0.0 0.0 0.00 0.00 0.00 92 1013.0
20260905035443 71 10 0.0 0.0 0.00 0.00 0.00 92 1012.8
20260905034444 72 10 0.0 0.0 0.00 0.00 0.00 92 1012.7
20260905033943 72 10 0.0 0.0 0.00 0.00 0.00 92 1012.8
20260905033443 72 10 0.0 0.0 0.00 0.00 0.00 91 1012.9
20260905032942 72 10 0.0 0.0 0.00 0.00 0.00 91 1012.9
20260905031942 72 10 0.0 0.0 0.00 0.00 0.00 92 1012.9
20260905031442 72 10 0.0 0.0 0.00 0.00 0.00 92 1012.8
20260905030942 72 10 0.0 0.0 0.00 0.00 0.00 91 1012.7
20260905030442 73 10 0.0 0.0 0.00 0.00 0.00 90 1012.8
20260905025942 73 10 0.0 0.0 0.00 0.00 0.00 90 1012.7
20260905025441 73 10 0.0 0.0 0.00 0.00 0.00 90 1012.6
20260905024941 73 10 0.0 0.0 0.00 0.00 0.00 89 1012.6
20260905024442 73 10 0.0 0.0 0.00 0.00 0.00 89 1012.5
20260905023942 73 10 0.0 0.0 0.00 0.00 0.00 89 1012.4
20260905021940 76 10 1.0 3.0 0.00 0.00 0.00 83 1012.2
20260905021441 76 10 1.0 3.0 0.00 0.00 0.00 84 1012.2
20260905020941 75 10 2.0 3.0 0.00 0.00 0.00 85 1012.1
20260905020440 76 130 1.0 2.0 0.00 0.00 0.00 85 1012.0
20260905015940 76 130 0.0 0.0 0.00 0.00 0.00 85 1011.9
20260905014940 76 130 0.0 0.0 0.00 0.00 0.00 83 1011.7
20260905013940 77 130 0.0 1.0 0.00 0.00 0.00 82 1011.6
20260905012940 77 123 0.0 0.0 0.00 0.00 0.00 81 1011.5
20260905012440 78 123 0.0 0.0 0.00 0.00 0.00 80 1011.5
20260905011939 78 123 0.0 0.0 0.00 0.00 0.00 80 1011.4
20260905011440 78 123 0.0 0.0 0.00 0.00 0.00 79 1011.4
20260905010939 79 123 0.0 0.0 0.00 0.00 0.00 78 1011.3
20260905005939 80 123 0.0 1.0 0.00 0.00 0.00 76 1011.4
20260905005439 80 123 0.0 0.0 0.00 0.00 0.00 75 1011.3
20260905004939 81 121 0.0 1.0 0.00 0.00 0.00 75 1011.4
20260905003939 83 124 0.0 2.0 0.00 0.00 0.00 71 1011.4
20260905003438 84 124 1.0 2.0 0.00 0.00 0.00 70 1011.3
20260905002938 84 173 0.0 2.0 0.00 0.00 0.00 69 1011.3
20260905002438 85 173 1.0 4.0 0.00 0.00 0.00 68 1011.3
20260905001938 86 173 1.0 4.0 0.00 0.00 0.00 66 1011.3
20260905000938 89 180 1.0 5.0 0.00 0.00 0.00 60 1011.5
20260905000439 90 172 2.0 4.0 0.00 0.00 0.00 56 1011.6
20260904235937 92 175 2.0 5.0 0.00 0.00 0.00 54 1011.5
20260904235437 92 171 2.0 5.0 0.00 0.00 0.00 53 1011.5
20260904234938 93 172 3.0 6.0 0.00 0.00 0.00 53 1011.5
20260904234438 94 193 3.0 7.0 0.00 0.00 0.00 52 1011.5
20260904233937 94 210 2.0 7.0 0.00 0.00 0.00 50 1011.5
20260904233437 95 168 2.0 10.0 0.00 0.00 0.00 51 1011.5
20260904232937 95 180 3.0 10.0 0.00 0.00 0.00 47 1011.5
20260904232436 95 168 4.0 10.0 0.00 0.00 0.00 46 1011.6
20260904231937 95 197 4.0 11.0 0.00 0.00 0.00 47 1011.6
20260904231437 96 171 7.0 11.0 0.00 0.00 0.00 45 1011.6
20260904230936 96 116 5.0 11.0 0.00 0.00 0.00 47 1011.6
20260904230436 96 151 6.0 12.0 0.00 0.00 0.00 45 1011.7
20260904225436 96 169 5.0 10.0 0.00 0.00 0.00 45 1011.6
20260904224935 96 188 6.0 11.0 0.00 0.00 0.00 46 1011.6
20260904223936 96 179 6.0 10.0 0.00 0.00 0.00 46 1011.7
20260904223436 97 175 5.0 10.0 0.00 0.00 0.00 46 1011.6
20260904222935 97 124 4.0 12.0 0.00 0.00 0.00 45 1011.6
20260904222435 97 168 7.0 12.0 0.00 0.00 0.00 45 1011.6
20260904221935 97 209 5.0 11.0 0.00 0.00 0.00 46 1011.7
20260904221435 97 155 6.0 11.0 0.00 0.00 0.00 44 1011.7
20260904220935 97 149 4.0 17.0 0.00 0.00 0.00 45 1011.7
20260904220435 98 193 4.0 17.0 0.00 0.00 0.00 45 1011.6
20260904215935 98 214 6.0 11.0 0.00 0.00 0.00 46 1011.7
20260904215435 98 203 3.0 11.0 0.00 0.00 0.00 45 1011.8
20260904214935 98 210 5.0 11.0 0.00 0.00 0.00 44 1011.7
20260904214434 98 169 5.0 11.0 0.00 0.00 0.00 45 1011.8
20260904213934 98 161 4.0 10.0 0.00 0.00 0.00 46 1011.8
20260904212934 98 154 5.0 14.0 0.00 0.00 0.00 45 1011.9
20260904212434 98 133 5.0 14.0 0.00 0.00 0.00 45 1012.0
20260904211934 98 128 6.0 12.0 0.00 0.00 0.00 45 1012.0
20260904211434 98 213 4.0 12.0 0.00 0.00 0.00 46 1012.1
20260904210933 98 190 9.0 12.0 0.00 0.00 0.00 46 1012.1
20260904210433 98 200 4.0 11.0 0.00 0.00 0.00 47 1012.1
20260904205433 98 178 5.0 14.0 0.00 0.00 0.00 45 1012.1
20260904204934 98 219 4.0 12.0 0.00 0.00 0.00 46 1012.1
20260904203932 97 200 5.0 12.0 0.00 0.00 0.00 46 1012.1
20260904203432 98 147 4.0 13.0 0.00 0.00 0.00 46 1012.2
20260904202933 98 172 5.0 13.0 0.00 0.00 0.00 46 1012.3
20260904202433 98 157 5.0 14.0 0.00 0.00 0.00 47 1012.3
20260904201932 98 185 7.0 14.0 0.00 0.00 0.00 45 1012.4
20260904201433 98 193 6.0 14.0 0.00 0.00 0.00 46 1012.4
20260904200432 97 192 3.0 11.0 0.00 0.00 0.00 46 1012.4